When you browse on this site, cookies collect data to enhance your experience and personalize the content and advertising you see.
Visit our Privacy Policy to learn more. By continuing to use the site, you agree to this use of cookies and data.

Hourly Weather Lubango

Today, 22 September, Tuesday

Time Temperature Precipitation Wind Pressure Humidity
00:00 +14°C° 0 mm 0 mps 608 mmHg 69%
01:00 +13°C° 0 mm 0 mps 608 mmHg 66%
02:00 +14°C° 0 mm 0 mps 608 mmHg 62%
03:00 +14°C° 0 mm 0 mps 608 mmHg 58%
04:00 +15°C° 0 mm 0 mps 608 mmHg 54%
05:00 +18°C° 0 mm 1 mps 609 mmHg 50%
06:00 +18°C° 0 mm 1 mps 610 mmHg 45%
07:00 +19°C° 0 mm 1 mps 611 mmHg 41%
08:00 +23°C° 0 mm 1 mps 612 mmHg 33%
09:00 +26°C° 0 mm 2 mps 613 mmHg 26%
10:00 +29°C° 0 mm 3 mps 614 mmHg 18%
11:00 +30°C° 0 mm 3 mps 614 mmHg 19%
12:00 +30°C° 0 mm 3 mps 613 mmHg 19%
13:00 +31°C° 0 mm 3 mps 613 mmHg 19%
14:00 +30°C° 0 mm 4 mps 612 mmHg 23%
15:00 +29°C° 0 mm 4 mps 611 mmHg 28%
16:00 +27°C° 0 mm 4 mps 610 mmHg 32%
17:00 +24°C° 0 mm 3 mps 609 mmHg 46%
18:00 +20°C° 0 mm 2 mps 609 mmHg 60%
19:00 +16°C° 0 mm 2 mps 609 mmHg 74%
20:00 +16°C° 0 mm 1 mps 609 mmHg 75%
21:00 +15°C° 0 mm 1 mps 609 mmHg 77%
22:00 +14°C° 0 mm 1 mps 609 mmHg 79%
23:00 +14°C° 0 mm 1 mps 609 mmHg 76%

Tomorrow, 23 September, Wednesday

Time Temperature Precipitation Wind Pressure Humidity
00:00 +14°C° 0 mm 1 mps 609 mmHg 73%
01:00 +14°C° 0 mm 1 mps 609 mmHg 71%
02:00 +14°C° 0 mm 1 mps 608 mmHg 69%
03:00 +14°C° 0 mm 1 mps 608 mmHg 67%
04:00 +14°C° 0 mm 1 mps 607 mmHg 65%
05:00 +15°C° 0 mm 1 mps 608 mmHg 56%
06:00 +18°C° 0 mm 1 mps 609 mmHg 47%
07:00 +19°C° 0 mm 1 mps 610 mmHg 38%
08:00 +22°C° 0 mm 1 mps 611 mmHg 32%
09:00 +25°C° 0 mm 2 mps 612 mmHg 26%
10:00 +28°C° 0 mm 2 mps 613 mmHg 20%
11:00 +29°C° 0 mm 2 mps 613 mmHg 20%
12:00 +30°C° 0 mm 3 mps 612 mmHg 19%
13:00 +31°C° 0 mm 3 mps 612 mmHg 18%
14:00 +30°C° 0 mm 3 mps 611 mmHg 21%
15:00 +29°C° 0 mm 3 mps 610 mmHg 24%
16:00 +28°C° 0 mm 3 mps 610 mmHg 27%
17:00 +25°C° 0 mm 3 mps 609 mmHg 40%
18:00 +20°C° 0 mm 2 mps 608 mmHg 53%
19:00 +16°C° 0 mm 2 mps 608 mmHg 66%
20:00 +16°C° 0 mm 1 mps 608 mmHg 69%
21:00 +15°C° 0 mm 1 mps 608 mmHg 71%
22:00 +15°C° 0 mm 1 mps 609 mmHg 73%
23:00 +15°C° 0 mm 1 mps 609 mmHg 72%

Day after tomorrow, 24 September, Thursday

Time Temperature Precipitation Wind Pressure Humidity
00:00 +15°C° 0 mm 1 mps 609 mmHg 70%
01:00 +15°C° 0 mm 1 mps 608 mmHg 69%
02:00 +15°C° 0 mm 1 mps 608 mmHg 66%
03:00 +14°C° 0 mm 1 mps 608 mmHg 64%
04:00 +14°C° 0 mm 1 mps 607 mmHg 62%
05:00 +16°C° 0 mm 1 mps 608 mmHg 55%
06:00 +16°C° 0 mm 0 mps 609 mmHg 48%
07:00 +17°C° 0 mm 0 mps 610 mmHg 41%
08:00 +22°C° 0 mm 1 mps 611 mmHg 35%
09:00 +25°C° 0 mm 2 mps 612 mmHg 28%
10:00 +29°C° 0 mm 3 mps 613 mmHg 22%
11:00 +30°C° 0 mm 3 mps 613 mmHg 21%
12:00 +31°C° 0 mm 3 mps 612 mmHg 19%
13:00 +33°C° 0 mm 3 mps 612 mmHg 18%
14:00 +32°C° 0 mm 4 mps 611 mmHg 20%
15:00 +30°C° 0 mm 4 mps 611 mmHg 23%
16:00 +29°C° 0 mm 4 mps 610 mmHg 26%
17:00 +25°C° 0 mm 3 mps 609 mmHg 43%
18:00 +19°C° 0 mm 2 mps 608 mmHg 59%
19:00 +15°C° 0 mm 2 mps 607 mmHg 75%
20:00 +14°C° 0 mm 1 mps 608 mmHg 77%
21:00 +14°C° 0 mm 1 mps 608 mmHg 79%
22:00 +13°C° 0 mm 1 mps 608 mmHg 81%
23:00 +13°C° 0 mm 1 mps 608 mmHg 80%

25 September, Friday

Time Temperature Precipitation Wind Pressure Humidity
00:00 +13°C° 0 mm 1 mps 608 mmHg 78%
01:00 +12°C° 0 mm 0 mps 607 mmHg 77%
02:00 +12°C° 0 mm 0 mps 607 mmHg 76%
03:00 +12°C° 0 mm 0 mps 607 mmHg 75%
04:00 +11°C° 0 mm 0 mps 607 mmHg 73%
05:00 +14°C° 0 mm 1 mps 608 mmHg 65%
06:00 +16°C° 0 mm 1 mps 609 mmHg 56%
07:00 +18°C° 0 mm 1 mps 610 mmHg 47%
08:00 +22°C° 0 mm 1 mps 611 mmHg 38%
09:00 +25°C° 0 mm 2 mps 612 mmHg 28%
10:00 +28°C° 0 mm 3 mps 613 mmHg 19%
11:00 +29°C° 0 mm 3 mps 613 mmHg 17%
12:00 +30°C° 0 mm 3 mps 612 mmHg 16%
13:00 +33°C° 0 mm 3 mps 612 mmHg 15%
14:00 +32°C° 0 mm 4 mps 611 mmHg 18%
15:00 +29°C° 0 mm 4 mps 610 mmHg 20%
16:00 +28°C° 0 mm 4 mps 609 mmHg 23%
17:00 +24°C° 0 mm 3 mps 609 mmHg 38%
18:00 +19°C° 0 mm 3 mps 608 mmHg 53%
19:00 +15°C° 0 mm 2 mps 607 mmHg 68%
20:00 +15°C° 0 mm 1 mps 607 mmHg 67%
21:00 +14°C° 0 mm 1 mps 607 mmHg 67%
22:00 +14°C° 0 mm 1 mps 608 mmHg 66%
23:00 +14°C° 0 mm 1 mps 607 mmHg 61%

26 September, Saturday

Time Temperature Precipitation Wind Pressure Humidity
00:00 +14°C° 0 mm 1 mps 607 mmHg 57%
01:00 +14°C° 0 mm 1 mps 607 mmHg 53%
02:00 +14°C° 0 mm 1 mps 607 mmHg 52%
03:00 +13°C° 0 mm 1 mps 606 mmHg 50%
04:00 +13°C° 0 mm 1 mps 606 mmHg 49%
05:00 +14°C° 0 mm 1 mps 607 mmHg 45%
06:00 +15°C° 0 mm 1 mps 608 mmHg 41%
07:00 +18°C° 0 mm 1 mps 609 mmHg 37%
08:00 +20°C° 0 mm 2 mps 610 mmHg 31%
09:00 +24°C° 0 mm 3 mps 611 mmHg 26%
10:00 +27°C° 0 mm 3 mps 612 mmHg 20%
11:00 +28°C° 0 mm 3 mps 612 mmHg 18%
12:00 +30°C° 0 mm 3 mps 611 mmHg 16%
13:00 +31°C° 0 mm 3 mps 611 mmHg 15%
14:00 +30°C° 0 mm 4 mps 610 mmHg 17%
15:00 +29°C° 0 mm 4 mps 610 mmHg 19%
16:00 +29°C° 0 mm 4 mps 609 mmHg 21%
17:00 +24°C° 0 mm 3 mps 608 mmHg 38%
18:00 +19°C° 0 mm 2 mps 607 mmHg 54%
19:00 +15°C° 0 mm 2 mps 606 mmHg 70%
20:00 +14°C° 0 mm 2 mps 606 mmHg 70%
21:00 +14°C° 0 mm 1 mps 606 mmHg 69%
22:00 +13°C° 0 mm 1 mps 607 mmHg 69%
23:00 +13°C° 0 mm 1 mps 606 mmHg 69%

27 September, Sunday

Time Temperature Precipitation Wind Pressure Humidity
00:00 +13°C° 0 mm 1 mps 606 mmHg 69%
01:00 +12°C° 0 mm 1 mps 606 mmHg 68%
02:00 +12°C° 0 mm 1 mps 606 mmHg 66%
03:00 +12°C° 0 mm 1 mps 606 mmHg 65%
04:00 +12°C° 0 mm 1 mps 605 mmHg 63%
05:00 +13°C° 0 mm 1 mps 606 mmHg 55%
06:00 +15°C° 0 mm 1 mps 607 mmHg 47%
07:00 +18°C° 0 mm 1 mps 608 mmHg 38%
08:00 +21°C° 0 mm 1 mps 610 mmHg 31%
09:00 +24°C° 0 mm 2 mps 611 mmHg 24%
10:00 +28°C° 0 mm 3 mps 612 mmHg 17%
11:00 +29°C° 0 mm 3 mps 612 mmHg 17%
12:00 +30°C° 0 mm 3 mps 611 mmHg 16%
13:00 +31°C° 0 mm 3 mps 611 mmHg 16%
14:00 +30°C° 0 mm 4 mps 610 mmHg 18%
15:00 +29°C° 0 mm 4 mps 609 mmHg 21%
16:00 +28°C° 0 mm 5 mps 609 mmHg 24%
17:00 +24°C° 0 mm 3 mps 608 mmHg 39%
18:00 +19°C° 0 mm 2 mps 607 mmHg 54%
19:00 +15°C° 0 mm 1 mps 606 mmHg 68%
20:00 +14°C° 0 mm 1 mps 606 mmHg 67%
21:00 +14°C° 0 mm 1 mps 606 mmHg 67%
22:00 +13°C° 0 mm 1 mps 607 mmHg 66%
23:00 +13°C° 0 mm 1 mps 606 mmHg 65%
Show more